TimePDT,TemperatureF,Dew PointF,Humidity,Sea Level PressureIn,VisibilityMPH,Wind Direction,Wind SpeedMPH,Gust SpeedMPH,PrecipitationIn,Events,Conditions,WindDirDegrees,DateUTC
12:15 AM,51.8,50.0,94,30.21,6.0,Calm,Calm,-,N/A,,Overcast,0,2013-04-07 07:15:00
12:35 AM,51.8,50.0,94,30.22,3.0,NW,3.5,-,N/A,,Overcast,310,2013-04-07 07:35:00
12:55 AM,53.6,50.0,88,30.21,5.0,NW,3.5,-,N/A,,Overcast,320,2013-04-07 07:55:00
1:15 AM,53.6,50.0,88,30.21,5.0,Calm,Calm,-,N/A,,Overcast,0,2013-04-07 08:15:00
1:35 AM,53.6,50.0,88,30.20,4.0,Calm,Calm,-,N/A,,Overcast,0,2013-04-07 08:35:00
1:55 AM,53.6,50.0,88,30.20,5.0,Calm,Calm,-,N/A,,Overcast,0,2013-04-07 08:55:00
2:15 AM,53.6,50.0,88,30.20,6.0,ESE,3.5,-,N/A,,Overcast,120,2013-04-07 09:15:00
2:35 AM,51.8,50.0,94,30.19,6.0,SE,4.6,-,N/A,,Overcast,140,2013-04-07 09:35:00
2:55 AM,51.8,50.0,94,30.17,6.0,SE,4.6,-,N/A,,Overcast,130,2013-04-07 09:55:00
3:15 AM,51.8,50.0,94,30.17,7.0,ESE,3.5,-,N/A,,Overcast,120,2013-04-07 10:15:00
3:35 AM,53.6,50.0,88,30.17,7.0,Calm,Calm,-,N/A,,Overcast,0,2013-04-07 10:35:00
3:55 AM,51.8,50.0,94,30.16,7.0,ESE,3.5,-,N/A,,Overcast,120,2013-04-07 10:55:00
4:15 AM,53.6,50.0,88,30.16,8.0,Calm,Calm,-,N/A,,Overcast,0,2013-04-07 11:15:00
4:35 AM,53.6,50.0,88,30.15,8.0,Calm,Calm,-,N/A,,Overcast,0,2013-04-07 11:35:00
4:55 AM,53.6,50.0,88,30.16,9.0,Calm,Calm,-,N/A,,Overcast,0,2013-04-07 11:55:00
5:15 AM,53.6,50.0,88,30.15,8.0,Calm,Calm,-,N/A,,Overcast,0,2013-04-07 12:15:00
5:35 AM,51.8,50.0,94,30.15,9.0,Calm,Calm,-,N/A,,Overcast,0,2013-04-07 12:35:00
5:55 AM,51.8,50.0,94,30.14,8.0,Calm,Calm,-,N/A,,Overcast,0,2013-04-07 12:55:00
6:15 AM,51.8,50.0,94,30.14,8.0,Calm,Calm,-,N/A,,Overcast,0,2013-04-07 13:15:00
6:35 AM,51.8,50.0,94,30.15,8.0,Calm,Calm,-,N/A,,Overcast,0,2013-04-07 13:35:00
6:55 AM,51.8,50.0,94,30.15,7.0,Calm,Calm,-,N/A,,Overcast,0,2013-04-07 13:55:00
7:15 AM,51.8,50.0,94,30.15,6.0,Calm,Calm,-,N/A,,Mostly Cloudy,0,2013-04-07 14:15:00
7:35 AM,53.6,50.0,88,30.16,6.0,Calm,Calm,-,N/A,,Overcast,0,2013-04-07 14:35:00
7:55 AM,53.6,50.0,88,30.16,6.0,Calm,Calm,-,N/A,,Overcast,0,2013-04-07 14:55:00
8:15 AM,53.6,51.8,94,30.16,6.0,Calm,Calm,-,N/A,,Overcast,0,2013-04-07 15:15:00
8:35 AM,55.4,51.8,88,30.16,4.0,SSE,4.6,-,N/A,,Overcast,160,2013-04-07 15:35:00
8:55 AM,55.4,51.8,88,30.15,3.0,SSE,4.6,-,N/A,,Overcast,160,2013-04-07 15:55:00
9:15 AM,55.4,51.8,88,30.15,2.0,South,5.8,-,N/A,,Overcast,170,2013-04-07 16:15:00
9:35 AM,55.4,51.8,88,30.14,3.0,South,4.6,-,N/A,,Overcast,190,2013-04-07 16:35:00
9:55 AM,55.4,51.8,88,30.14,5.0,South,4.6,-,N/A,,Overcast,180,2013-04-07 16:55:00
10:15 AM,55.4,51.8,88,30.15,2.0,SSW,5.8,-,N/A,,Overcast,210,2013-04-07 17:15:00
10:35 AM,53.6,53.6,100,30.17,0.5,SSW,3.5,-,N/A,Fog,Fog,210,2013-04-07 17:35:00
10:55 AM,53.6,53.6,100,30.16,0.5,South,6.9,-,N/A,Rain,Heavy Rain,180,2013-04-07 17:55:00
11:15 AM,53.6,53.6,100,30.16,1.8,South,5.8,-,N/A,,Overcast,190,2013-04-07 18:15:00
11:35 AM,53.6,53.6,100,30.15,1.8,SSW,5.8,-,N/A,,Overcast,200,2013-04-07 18:35:00
11:55 AM,53.6,53.6,100,30.15,0.8,South,4.6,-,N/A,,Overcast,180,2013-04-07 18:55:00
12:15 PM,53.6,53.6,100,30.15,1.0,SW,5.8,-,N/A,,Overcast,220,2013-04-07 19:15:00
12:35 PM,53.6,53.6,100,30.14,3.0,SW,5.8,-,N/A,,Overcast,230,2013-04-07 19:35:00
12:55 PM,55.4,55.4,100,30.14,3.0,WSW,4.6,-,N/A,,Overcast,240,2013-04-07 19:55:00
1:15 PM,55.4,55.4,100,30.13,3.0,WNW,5.8,-,N/A,,Overcast,300,2013-04-07 20:15:00
1:35 PM,57.2,55.4,94,30.12,3.0,WNW,9.2,-,N/A,,Mostly Cloudy,290,2013-04-07 20:35:00
1:55 PM,57.2,55.4,94,30.11,2.5,NW,8.1,-,N/A,,Overcast,310,2013-04-07 20:55:00
2:15 PM,57.2,55.4,94,30.10,3.0,NW,10.4,-,N/A,,Overcast,320,2013-04-07 21:15:00
2:35 PM,57.2,53.6,88,30.09,3.0,NW,11.5,-,N/A,,Overcast,320,2013-04-07 21:35:00
2:55 PM,57.2,53.6,88,30.08,3.0,NW,10.4,-,N/A,,Mostly Cloudy,320,2013-04-07 21:55:00
3:15 PM,57.2,53.6,88,30.08,4.0,NW,12.7,-,N/A,,Mostly Cloudy,320,2013-04-07 22:15:00
3:35 PM,57.2,53.6,88,30.08,4.0,NW,12.7,-,N/A,,Scattered Clouds,320,2013-04-07 22:35:00
3:55 PM,57.2,51.8,82,30.06,4.0,NW,11.5,-,N/A,,Haze,320,2013-04-07 22:55:00
4:15 PM,55.4,51.8,88,30.06,4.0,NW,9.2,-,N/A,,Mostly Cloudy,320,2013-04-07 23:15:00
4:35 PM,55.4,51.8,88,30.07,4.0,NW,10.4,-,N/A,,Overcast,320,2013-04-07 23:35:00
4:55 PM,55.4,50.0,82,30.06,4.0,NW,11.5,-,N/A,,Haze,320,2013-04-07 23:55:00
5:15 PM,55.4,50.0,82,30.05,5.0,NW,10.4,-,N/A,,Haze,320,2013-04-08 00:15:00
5:35 PM,55.4,50.0,82,30.05,5.0,NW,10.4,-,N/A,,Haze,320,2013-04-08 00:35:00
5:55 PM,55.4,50.0,82,30.04,5.0,NW,10.4,-,N/A,,Haze,320,2013-04-08 00:55:00
6:15 PM,55.4,50.0,82,30.04,5.0,NW,10.4,-,N/A,,Haze,320,2013-04-08 01:15:00
6:35 PM,53.6,48.2,82,30.03,5.0,NW,10.4,-,N/A,,Haze,310,2013-04-08 01:35:00
6:55 PM,53.6,48.2,82,30.02,5.0,WNW,10.4,-,N/A,,Haze,300,2013-04-08 01:55:00
7:15 PM,53.6,46.4,77,30.02,6.0,NW,10.4,-,N/A,,Haze,310,2013-04-08 02:15:00
7:35 PM,53.6,48.2,82,30.01,5.0,NW,8.1,-,N/A,,Haze,310,2013-04-08 02:35:00
7:55 PM,53.6,48.2,82,30.00,7.0,West,4.6,-,N/A,,Overcast,280,2013-04-08 02:55:00
8:15 PM,53.6,48.2,82,29.99,6.0,West,9.2,-,N/A,,Haze,280,2013-04-08 03:15:00
8:35 PM,53.6,48.2,82,29.99,6.0,WNW,10.4,-,N/A,,Overcast,290,2013-04-08 03:35:00
8:55 PM,53.6,50.0,88,29.99,3.0,WNW,9.2,-,N/A,,Overcast,290,2013-04-08 03:55:00
9:15 PM,53.6,50.0,88,29.99,5.0,WNW,10.4,-,N/A,,Overcast,290,2013-04-08 04:15:00
9:35 PM,53.6,50.0,88,29.97,4.0,West,8.1,-,N/A,,Overcast,270,2013-04-08 04:35:00
9:55 PM,53.6,50.0,88,29.97,5.0,West,9.2,17.3,N/A,,Overcast,260,2013-04-08 04:55:00
10:15 PM,53.6,50.0,88,29.96,5.0,West,9.2,-,N/A,,Overcast,260,2013-04-08 05:15:00
10:35 PM,53.6,50.0,88,29.94,2.0,West,13.8,18.4,N/A,,Overcast,260,2013-04-08 05:35:00
10:55 PM,53.6,51.8,94,29.93,4.0,West,16.1,21.9,N/A,,Overcast,270,2013-04-08 05:55:00
11:15 PM,53.6,51.8,94,29.93,1.8,WNW,20.7,27.6,0.02,Rain,Light Rain,300,2013-04-08 06:15:00
11:35 PM,53.6,50.0,88,29.92,6.0,NW,20.7,29.9,0.02,,Mostly Cloudy,320,2013-04-08 06:35:00
11:55 PM,53.6,50.0,88,29.92,6.0,NW,25.3,34.5,0.02,,Overcast,320,2013-04-08 06:55:00